sat.trackr.live / text

‹ back to catalog

STARLINK-33802

NORAD 64392 · 2025-127Y

PAYLOAD ACTIVE UNKNOWN

§ Identity

Operator
Country
US
Launch date
2025-06-13
Launch site
AFETR
Launch vehicle
Mass (kg)
RCS (m²)

Purposes: comms

External: N2YO · Heavens-Above · Gunter

§ Orbital elements

Epoch: 2026-05-25T04:40:04.711872Z

Period
94.27 min
Inclination
42.9958°
Eccentricity
0.0000988
Mean motion
15.27585868 rev/d
Perigee alt
482.4 km
Apogee alt
483.7 km
Semi-major
6,861.2 km
B*
6.9996e-4
RAAN
108.0527°
Arg perigee
281.2268°
Mean anomaly
78.8472°
Rev number
5,421

§ Raw data

STARLINK-338021 64392U 25127Y   26145.19449898  .00019053  00000+0  69996-3 0  99902 64392  42.9958 108.0527 0000988 281.2268  78.8472 15.27585868 54213

JSON: /api/v1/satellites/64392 · /tle

For live sub-satellite position, see the globe view (requires WebGL).

§ Visibility from observer

Set your observer location to see the next 7 days of passes ≥ 10°. The values pass through the URL so the page stays shareable.

No JS? Fill the form by hand. The geolocation button needs JavaScript.